Sardis Lake Weather Center

Moon Phase Calendar



Sardis Lake Water Level
Online Cameras

 


      

Current Conditions in University
7/24/2024 5:01:01 PM

83°F
Feels Like 88
Clouds
Humidity
69%
Pressure
30.12"
Wind
5.8 mph (S)
Dew Point
72°F
UV Index
1/10 (Low)
Visibility
6 mi

Hourly Forecast

Date & Time Wed, Jul 24
5:00 PM
Wed, Jul 24
6:00 PM
Wed, Jul 24
7:00 PM
Wed, Jul 24
8:00 PM
Wed, Jul 24
9:00 PM
Wed, Jul 24
10:00 PM
Wed, Jul 24
11:00 PM
Thu, Jul 25
12:00 AM
Thu, Jul 25
1:00 AM
Thu, Jul 25
2:00 AM
Thu, Jul 25
3:00 AM
Thu, Jul 25
4:00 AM
Thu, Jul 25
5:00 AM
Thu, Jul 25
6:00 AM
Thu, Jul 25
7:00 AM
Thu, Jul 25
8:00 AM
Thu, Jul 25
9:00 AM
Thu, Jul 25
10:00 AM
Thu, Jul 25
11:00 AM
Thu, Jul 25
12:00 PM
Thu, Jul 25
1:00 PM
Thu, Jul 25
2:00 PM
Thu, Jul 25
3:00 PM
Thu, Jul 25
4:00 PM
Thu, Jul 25
5:00 PM
Thu, Jul 25
6:00 PM
Thu, Jul 25
7:00 PM
Thu, Jul 25
8:00 PM
Thu, Jul 25
9:00 PM
Thu, Jul 25
10:00 PM
Thu, Jul 25
11:00 PM
Fri, Jul 26
12:00 AM
Fri, Jul 26
1:00 AM
Fri, Jul 26
2:00 AM
Fri, Jul 26
3:00 AM
Fri, Jul 26
4:00 AM
Fri, Jul 26
5:00 AM
Fri, Jul 26
6:00 AM
Fri, Jul 26
7:00 AM
Fri, Jul 26
8:00 AM
Fri, Jul 26
9:00 AM
Fri, Jul 26
10:00 AM
Fri, Jul 26
11:00 AM
Fri, Jul 26
12:00 PM
Fri, Jul 26
1:00 PM
Fri, Jul 26
2:00 PM
Fri, Jul 26
3:00 PM
Fri, Jul 26
4:00 PM
Condition
Clouds

Clouds

Clouds

Clouds

Clouds

Clouds

Clouds

Clouds

Clouds

Clouds

Clouds

Clouds

Clouds

Clouds

Clouds

Clouds

Clouds

Clouds

Clouds

Rain

Rain

Rain

Rain

Rain

Rain

Rain

Clouds

Clouds

Clouds

Clouds

Clouds

Clouds

Rain

Rain

Rain

Rain

Clouds

Clouds

Clouds

Rain

Rain

Rain

Rain

Rain

Rain

Rain

Rain

Rain
Temperature 83°F81°F79°F76°F74°F71°F71°F71°F70°F70°F69°F69°F69°F69°F70°F72°F74°F75°F78°F79°F79°F79°F78°F78°F76°F73°F72°F71°F70°F69°F69°F69°F69°F69°F69°F69°F69°F69°F69°F71°F72°F72°F74°F74°F75°F75°F77°F78°F
Feels Like 88°F86°F79°F78°F75°F73°F73°F72°F72°F72°F71°F70°F70°F71°F72°F74°F75°F76°F79°F79°F79°F79°F80°F80°F77°F75°F74°F73°F71°F71°F70°F70°F70°F70°F70°F70°F70°F70°F71°F72°F73°F74°F75°F76°F76°F76°F78°F79°F
Cloudiness 20%36%52%68%84%100%100%100%100%100%100%100%100%100%100%100%100%100%100%100%100%100%100%100%100%100%100%100%100%100%100%100%100%100%100%100%100%100%100%100%100%100%100%100%100%100%100%100%
Visibility 6 mi6 mi6 mi6 mi6 mi6 mi6 mi6 mi6 mi6 mi6 mi6 mi6 mi6 mi6 mi6 mi6 mi6 mi6 mi6 mi6 mi6 mi6 mi4 mi2 mi6 mi6 mi6 mi6 mi6 mi6 mi6 mi6 mi3 mi6 mi6 mi6 mi6 mi6 mi6 mi6 mi5 mi5 mi4 mi4 mi6 mi6 mi6 mi
Precipitation 80%80%80%8%0%1%2%1%1%0%0%0%0%0%0%0%0%0%0%25%27%82%100%100%100%100%80%0%0%0%0%0%32%100%100%100%80%80%80%95%100%100%100%100%100%100%100%100%
Humidity 69%75%81%87%93%99%99%99%99%99%99%99%99%99%98%94%90%85%75%72%72%76%82%83%91%95%96%97%97%97%98%98%99%99%99%99%99%99%99%97%96%95%92%92%91%91%83%83%
Dew Point 72°F73°F73°F72°F72°F71°F71°F70°F70°F70°F69°F68°F69°F69°F69°F70°F70°F70°F69°F69°F69°F71°F72°F73°F72°F72°F71°F70°F69°F68°F68°F68°F68°F69°F69°F69°F69°F68°F69°F70°F70°F70°F71°F71°F72°F72°F71°F72°F
Pressure 30.12"30.12"30.12"30.15"30.15"30.15"30.15"30.15"30.15"30.12"30.12"30.12"30.12"30.12"30.15"30.15"30.18"30.18"30.18"30.15"30.15"30.12"30.12"30.12"30.12"30.09"30.09"30.09"30.12"30.12"30.12"30.12"30.12"30.09"30.09"30.06"30.06"30.06"30.09"30.09"30.12"30.12"30.12"30.09"30.09"30.06"30.06"30.03"
Wind Speed 5.6 mph5.9 mph4.7 mph3.6 mph3.6 mph3.8 mph3.8 mph3.7 mph3.7 mph3.2 mph3.4 mph3.3 mph2.8 mph2.8 mph2.7 mph3 mph4.5 mph4.5 mph4.6 mph3.9 mph4.3 mph5.2 mph5.6 mph5 mph5.2 mph5.5 mph5.6 mph5.9 mph4.5 mph3.8 mph3.6 mph3.2 mph3.7 mph2.2 mph1.5 mph3.2 mph2.5 mph2.6 mph2.3 mph2.1 mph2.5 mph3.7 mph3.9 mph3.8 mph4.6 mph4.7 mph3.6 mph4.4 mph
Wind
Direction
192°
SSW
183°
S
192°
SSW
188°
S
174°
S
174°
S
178°
S
180°
S
194°
SSW
187°
S
209°
SSW
211°
SSW
213°
SSW
229°
SW
212°
SSW
224°
SW
213°
SSW
210°
SSW
218°
SW
221°
SW
204°
SSW
183°
S
172°
S
186°
S
206°
SSW
217°
SW
223°
SW
214°
SW
220°
SW
229°
SW
210°
SSW
223°
SW
234°
SW
220°
SW
184°
S
207°
SSW
197°
SSW
180°
S
155°
SSE
165°
SSE
195°
SSW
214°
SW
238°
WSW
254°
WSW
235°
SW
226°
SW
226°
SW
222°
SW

Daily Forecast

Date High Low Precip. Humidity
Today
Jul 24

Rain
83 °F
70 °F
100%
82%
Thursday
Jul 25

Rain
79 °F
69 °F
100%
72%
Friday
Jul 26

Rain
78 °F
69 °F
100%
91%
Saturday
Jul 27

Rain
85 °F
69 °F
100%
72%
Sunday
Jul 28

Rain
85 °F
72 °F
100%
77%
Monday
Jul 29

Rain
90 °F
72 °F
100%
56%
Tuesday
Jul 30

Rain
96 °F
73 °F
100%
45%
Wednesday
Jul 31

Rain
96 °F
73 °F
100%
45%
Thursday
Aug 1

Rain
95 °F
71 °F
100%
63%
Friday
Aug 2

Clouds
97 °F
76 °F
0%
50%
Saturday
Aug 3

Clouds
98 °F
77 °F
0%
56%
Sunday
Aug 4

Rain
93 °F
70 °F
100%
46%
Monday
Aug 5

Rain
94 °F
70 °F
100%
71%
Tuesday
Aug 6

Rain
91 °F
73 °F
100%
51%
Wednesday
Aug 7

Rain
92 °F
71 °F
100%
66%
Thursday
Aug 8

Rain
92 °F
73 °F
100%
45%

Temperature 8-14 Day Outlook



Precipitation 8-14 Day Outlook






About Us
Contact Us
Site Map
Search Site
Advertise With Us
   
Sardis.USLakes.info
THE SARDIS LAKE WEBSITE

Copyright 2024, Lakes Online
Privacy    |    Legal